Location: Gwatt
(46.7204°N, 7.6223°E)
Time: 20:00:47
(UTC+00:00)

Transit 2A - Pass Details

Date: 29 January 2021
Orbit: 600 x 958 km, 66.7° (Epoch: 26 February)

Event Time Altitude Azimuth Distance (km) Brightness Sun altitude
Rises 03:00:14 0° 229° (SW) 3,465 - -40.4°
Reaches altitude 10° 03:02:54 10° 235° (SW) 2,478 - -40.0°
Maximum altitude 03:08:25 49° 309° (NW) 1,025 - -39.1°
Exits shadow 03:13:13 11° 24° (NNE) 2,174 8.7 -38.3°
Drops below altitude 10° 03:13:26 10° 25° (NNE) 2,254 8.8 -38.2°
Sets 03:15:47 0° 31° (NNE) 3,124 9.7 -37.9°
